| time (UTC) | temp F | wind direction | speed knots | gust knots | rain 1hr in | rain 24hr in | rain mn in | humidity % | barometer mb |
| 20260510151859 | 57 | 25 | 0.9 | 2.6 | 0.00 | 0.00 | 0.00 | 58 | 1021.9 |
| 20260510150858 | 56 | 38 | 0.9 | 2.6 | 0.00 | 0.00 | 0.00 | 59 | 1022.0 |
| 20260510145857 | 55 | 338 | 0.0 | 1.7 | 0.00 | 0.00 | 0.00 | 59 | 1022.1 |
| 20260510144856 | 55 | 334 | 0.9 | 2.6 | 0.00 | 0.00 | 0.00 | 59 | 1022.5 |
| 20260510143855 | 54 | 34 | 0.9 | 2.6 | 0.00 | 0.00 | 0.00 | 62 | 1022.4 |
| 20260510142853 | 53 | 36 | 0.0 | 2.6 | 0.00 | 0.00 | 0.00 | 62 | 1022.4 |
| 20260510141821 | 53 | 39 | 1.7 | 2.6 | 0.00 | 0.00 | 0.00 | 65 | 1022.4 |
| 20260510140820 | 52 | 136 | 0.9 | 1.7 | 0.00 | 0.00 | 0.00 | 67 | 1022.4 |
| 20260510135819 | 51 | 136 | 0.0 | 1.7 | 0.00 | 0.00 | 0.00 | 69 | 1022.3 |
| 20260510134819 | 50 | 146 | 0.9 | 1.7 | 0.00 | 0.00 | 0.00 | 70 | 1022.2 |
| 20260510133818 | 50 | 146 | 0.9 | 3.5 | 0.00 | 0.00 | 0.00 | 73 | 1022.5 |
| 20260510132817 | 48 | 148 | 0.9 | 3.5 | 0.00 | 0.00 | 0.00 | 76 | 1022.4 |
| 20260510131816 | 47 | 340 | 0.0 | 1.7 | 0.00 | 0.00 | 0.00 | 78 | 1022.3 |
| 20260510130815 | 46 | 338 | 0.9 | 1.7 | 0.00 | 0.00 | 0.00 | 79 | 1022.2 |
| 20260510125814 | 45 | 42 | 0.0 | 0.0 | 0.00 | 0.00 | 0.00 | 80 | 1022.2 |
| 20260510124813 | 45 | 169 | 0.0 | 0.0 | 0.00 | 0.00 | 0.00 | 79 | 1022.2 |
| 20260510123812 | 44 | 169 | 0.0 | 0.0 | 0.00 | 0.00 | 0.00 | 78 | 1022.2 |
| 20260510122811 | 45 | 168 | 0.0 | 0.0 | 0.00 | 0.00 | 0.00 | 77 | 1022.3 |
| 20260510121809 | 45 | 212 | 0.0 | 0.0 | 0.00 | 0.00 | 0.00 | 77 | 1022.4 |
| 20260510120808 | 45 | 212 | 0.0 | 0.0 | 0.00 | 0.00 | 0.00 | 77 | 1022.6 |
| 20260510115808 | 45 | 212 | 0.0 | 0.0 | 0.00 | 0.00 | 0.00 | 77 | 1022.5 |
| 20260510114807 | 45 | 211 | 0.0 | 0.0 | 0.00 | 0.00 | 0.00 | 76 | 1022.6 |
| 20260510113734 | 46 | 210 | 0.0 | 0.0 | 0.00 | 0.00 | 0.00 | 76 | 1022.6 |
| 20260510112702 | 46 | 211 | 0.0 | 0.0 | 0.00 | 0.00 | 0.00 | 75 | 1022.6 |
| 20260510111630 | 46 | 211 | 0.0 | 0.0 | 0.00 | 0.00 | 0.00 | 75 | 1022.6 |
| 20260510110629 | 46 | 211 | 0.0 | 0.0 | 0.00 | 0.00 | 0.00 | 75 | 1022.7 |
| 20260510105628 | 46 | 211 | 0.0 | 0.0 | 0.00 | 0.00 | 0.00 | 75 | 1022.7 |
| 20260510104627 | 46 | 124 | 0.0 | 0.0 | 0.00 | 0.00 | 0.00 | 75 | 1022.7 |
| 20260510103626 | 46 | 124 | 0.0 | 0.0 | 0.00 | 0.00 | 0.00 | 76 | 1022.7 |
| 20260510102625 | 46 | 125 | 0.0 | 0.0 | 0.00 | 0.00 | 0.00 | 75 | 1023.0 |
| 20260510101552 | 47 | 155 | 0.0 | 0.0 | 0.00 | 0.00 | 0.00 | 75 | 1023.1 |
| 20260510100551 | 47 | 158 | 0.0 | 0.0 | 0.00 | 0.00 | 0.00 | 75 | 1023.2 |
| 20260510095550 | 47 | 158 | 0.0 | 0.9 | 0.00 | 0.00 | 0.00 | 75 | 1023.2 |
| 20260510094549 | 47 | 169 | 0.0 | 0.9 | 0.00 | 0.00 | 0.00 | 76 | 1023.1 |
| 20260510093446 | 47 | 175 | 0.0 | 0.0 | 0.00 | 0.00 | 0.00 | 76 | 1023.1 |
| 20260510092342 | 47 | 275 | 0.0 | 0.0 | 0.00 | 0.00 | 0.00 | 76 | 1023.2 |
| 20260510091341 | 47 | 279 | 0.0 | 0.0 | 0.00 | 0.00 | 0.00 | 75 | 1023.2 |
| 20260510090340 | 47 | 279 | 0.0 | 0.0 | 0.00 | 0.00 | 0.00 | 74 | 1023.3 |
| 20260510085340 | 48 | 280 | 0.0 | 0.0 | 0.00 | 0.00 | 0.00 | 74 | 1023.3 |
| 20260510084307 | 48 | 198 | 0.0 | 0.0 | 0.00 | 0.00 | 0.00 | 73 | 1023.2 |
| 20260510083306 | 48 | 198 | 0.0 | 0.0 | 0.00 | 0.00 | 0.00 | 74 | 1023.2 |
| 20260510082306 | 48 | 198 | 0.0 | 1.7 | 0.00 | 0.00 | 0.00 | 74 | 1023.2 |
| 20260510081303 | 48 | 198 | 0.9 | 3.5 | 0.00 | 0.00 | 0.00 | 74 | 1023.5 |
| 20260510080302 | 48 | 198 | 0.9 | 3.5 | 0.00 | 0.00 | 0.00 | 74 | 1023.1 |
| 20260510075230 | 48 | 213 | 0.9 | 2.6 | 0.00 | 0.00 | 0.00 | 73 | 1023.5 |
| 20260510074229 | 48 | 221 | 0.9 | 2.6 | 0.00 | 0.00 | 0.00 | 74 | 1023.8 |
| 20260510073228 | 48 | 220 | 0.9 | 2.6 | 0.00 | 0.00 | 0.00 | 74 | 1023.5 |
| 20260510072227 | 49 | 222 | 0.0 | 3.5 | 0.00 | 0.00 | 0.00 | 73 | 1023.6 |
| 20260510071226 | 49 | 222 | 0.0 | 4.3 | 0.00 | 0.00 | 0.00 | 73 | 1023.5 |
| 20260510070224 | 49 | 217 | 3.5 | 4.3 | 0.00 | 0.00 | 0.00 | 74 | 1023.4 |
| 20260510065222 | 49 | 163 | 0.0 | 4.3 | 0.00 | 0.00 | 0.00 | 74 | 1023.5 |
| 20260510064150 | 48 | 224 | 0.0 | 2.6 | 0.00 | 0.00 | 0.00 | 75 | 1023.4 |
| 20260510063149 | 48 | 223 | 0.0 | 3.5 | 0.00 | 0.00 | 0.00 | 75 | 1023.5 |
| 20260510062148 | 48 | 224 | 0.0 | 4.3 | 0.00 | 0.00 | 0.00 | 74 | 1023.3 |
| 20260510061146 | 48 | 232 | 2.6 | 4.3 | 0.00 | 0.00 | 0.00 | 74 | 1023.5 |
| 20260510060145 | 49 | 221 | 2.6 | 3.5 | 0.00 | 0.00 | 0.00 | 73 | 1023.6 |
| 20260510055144 | 50 | 157 | 0.9 | 2.6 | 0.00 | 0.00 | 0.00 | 71 | 1023.7 |
| 20260510054143 | 51 | 158 | 1.7 | 2.6 | 0.00 | 0.00 | 0.00 | 70 | 1023.8 |
| 20260510053111 | 51 | 159 | 0.0 | 1.7 | 0.00 | 0.00 | 0.00 | 69 | 1023.7 |
| 20260510052110 | 51 | 159 | 0.0 | 4.3 | 0.00 | 0.00 | 0.00 | 69 | 1024.0 |
| 20260510051109 | 52 | 159 | 1.7 | 4.3 | 0.00 | 0.00 | 0.00 | 69 | 1024.0 |
| 20260510050108 | 52 | 150 | 1.7 | 3.5 | 0.00 | 0.00 | 0.00 | 69 | 1023.9 |
| 20260510045107 | 52 | 134 | 1.7 | 2.6 | 0.00 | 0.00 | 0.00 | 68 | 1023.9 |
| 20260510044105 | 52 | 142 | 1.7 | 2.6 | 0.00 | 0.00 | 0.00 | 67 | 1024.2 |
| 20260510043104 | 53 | 142 | 1.7 | 2.6 | 0.00 | 0.00 | 0.00 | 67 | 1023.9 |
| 20260510042103 | 53 | 137 | 1.7 | 2.6 | 0.00 | 0.00 | 0.00 | 66 | 1023.9 |
| 20260510041031 | 54 | 137 | 1.7 | 3.5 | 0.00 | 0.00 | 0.00 | 65 | 1023.8 |
| 20260510035958 | 55 | 142 | 0.9 | 4.3 | 0.00 | 0.00 | 0.00 | 65 | 1023.8 |
| 20260510034957 | 55 | 149 | 1.7 | 4.3 | 0.00 | 0.00 | 0.00 | 65 | 1023.9 |
| 20260510033955 | 56 | 158 | 2.6 | 4.3 | 0.00 | 0.00 | 0.00 | 64 | 1023.9 |
| 20260510032922 | 57 | 153 | 1.7 | 4.3 | 0.00 | 0.00 | 0.00 | 63 | 1023.7 |
| 20260510031921 | 58 | 111 | 1.7 | 2.6 | 0.00 | 0.00 | 0.00 | 60 | 1023.9 |
| 20260510030746 | 60 | 88 | 0.0 | 0.0 | 0.00 | 0.00 | 0.00 | 57 | 1024.0 |
| 20260510025745 | 61 | 88 | 0.0 | 2.6 | 0.00 | 0.00 | 0.00 | 55 | 1024.1 |
| 20260510024744 | 62 | 80 | 1.7 | 2.6 | 0.00 | 0.00 | 0.00 | 51 | 1024.1 |
| 20260510023609 | 63 | 87 | 0.9 | 2.6 | 0.00 | 0.00 | 0.00 | 51 | 1023.7 |
| 20260510022537 | 63 | 83 | 0.9 | 2.6 | 0.00 | 0.00 | 0.00 | 49 | 1023.7 |
| 20260510021504 | 63 | 53 | 0.9 | 3.5 | 0.00 | 0.00 | 0.00 | 48 | 1023.7 |
| 20260510020504 | 64 | 81 | 0.9 | 3.5 | 0.00 | 0.00 | 0.00 | 48 | 1023.5 |
| 20260510015503 | 64 | 41 | 0.9 | 2.6 | 0.00 | 0.00 | 0.00 | 47 | 1023.4 |
| 20260510014501 | 64 | 86 | 1.7 | 6.1 | 0.00 | 0.00 | 0.00 | 46 | 1023.3 |
| 20260510013427 | 65 | 60 | 0.9 | 6.1 | 0.00 | 0.00 | 0.00 | 46 | 1023.4 |
| 20260510012426 | 65 | 26 | 1.7 | 3.5 | 0.00 | 0.00 | 0.00 | 46 | 1023.5 |
| 20260510011425 | 66 | 32 | 1.7 | 3.5 | 0.00 | 0.00 | 0.00 | 45 | 1023.6 |
| 20260510010423 | 66 | 11 | 1.7 | 3.5 | 0.00 | 0.00 | 0.00 | 44 | 1024.0 |
| 20260510005422 | 67 | 66 | 1.7 | 2.6 | 0.00 | 0.00 | 0.00 | 44 | 1023.8 |
| 20260510004420 | 67 | 32 | 0.9 | 2.6 | 0.00 | 0.00 | 0.00 | 43 | 1023.8 |
| 20260510003419 | 67 | 38 | 1.7 | 2.6 | 0.00 | 0.00 | 0.00 | 43 | 1023.9 |
| 20260510002418 | 68 | 67 | 0.9 | 3.5 | 0.00 | 0.00 | 0.00 | 41 | 1023.9 |
| 20260510001416 | 67 | 29 | 0.9 | 3.5 | 0.00 | 0.00 | 0.00 | 42 | 1023.8 |
| 20260510000414 | 67 | 30 | 0.9 | 3.5 | 0.00 | 0.00 | 0.00 | 43 | 1023.7 |
| 20260509235413 | 67 | 20 | 0.9 | 3.5 | 0.00 | 0.00 | 0.00 | 43 | 1023.7 |
| 20260509234310 | 67 | 17 | 0.9 | 2.6 | 0.00 | 0.00 | 0.00 | 46 | 1023.8 |
| 20260509233309 | 66 | 34 | 0.9 | 2.6 | 0.00 | 0.00 | 0.00 | 45 | 1023.8 |
| 20260509232308 | 66 | 29 | 1.7 | 2.6 | 0.00 | 0.00 | 0.00 | 43 | 1023.8 |
| 20260509231307 | 66 | 28 | 1.7 | 4.3 | 0.00 | 0.00 | 0.00 | 45 | 1024.2 |
| 20260509230306 | 66 | 25 | 1.7 | 3.5 | 0.00 | 0.00 | 0.00 | 43 | 1024.2 |
| 20260509225202 | 66 | 253 | 0.9 | 4.3 | 0.00 | 0.00 | 0.00 | 41 | 1024.2 |
| 20260509224201 | 67 | 296 | 1.7 | 5.2 | 0.00 | 0.00 | 0.00 | 40 | 1024.3 |
| 20260509223200 | 66 | 333 | 0.9 | 6.1 | 0.00 | 0.00 | 0.00 | 43 | 1024.3 |
| 20260509222159 | 67 | 15 | 0.9 | 4.3 | 0.00 | 0.00 | 0.00 | 43 | 1024.3 |
| 20260509221158 | 67 | 32 | 0.9 | 2.6 | 0.00 | 0.00 | 0.00 | 42 | 1024.6 |
| 20260509220157 | 67 | 20 | 0.9 | 2.6 | 0.00 | 0.00 | 0.00 | 41 | 1024.6 |
| 20260509215156 | 67 | 15 | 0.9 | 3.5 | 0.00 | 0.00 | 0.00 | 43 | 1024.6 |
| 20260509214155 | 67 | 5 | 1.7 | 3.5 | 0.00 | 0.00 | 0.00 | 43 | 1025.1 |
| 20260509213154 | 67 | 67 | 1.7 | 4.3 | 0.00 | 0.00 | 0.00 | 40 | 1025.1 |
| 20260509212122 | 68 | 11 | 0.9 | 7.0 | 0.00 | 0.00 | 0.00 | 39 | 1025.2 |
| 20260509211049 | 68 | 236 | 2.6 | 7.0 | 0.00 | 0.00 | 0.00 | 34 | 1025.5 |
| 20260509210017 | 67 | 157 | 1.7 | 7.0 | 0.00 | 0.00 | 0.00 | 36 | 1025.4 |
| 20260509204945 | 67 | 230 | 1.7 | 7.0 | 0.00 | 0.00 | 0.00 | 36 | 1025.5 |
| 20260509203841 | 66 | 23 | 1.7 | 5.2 | 0.00 | 0.00 | 0.00 | 36 | 1025.8 |
| 20260509202840 | 66 | 267 | 1.7 | 6.1 | 0.00 | 0.00 | 0.00 | 36 | 1025.8 |
| 20260509201839 | 66 | 250 | 0.9 | 6.1 | 0.00 | 0.00 | 0.00 | 38 | 1025.9 |
| 20260509200837 | 66 | 288 | 3.5 | 6.1 | 0.00 | 0.00 | 0.00 | 41 | 1025.9 |
| 20260509195837 | 66 | 284 | 1.7 | 7.8 | 0.00 | 0.00 | 0.00 | 42 | 1025.9 |
| 20260509194836 | 65 | 300 | 2.6 | 7.0 | 0.00 | 0.00 | 0.00 | 39 | 1026.1 |
| 20260509193835 | 66 | 305 | 2.6 | 7.0 | 0.00 | 0.00 | 0.00 | 38 | 1026.2 |
| 20260509192834 | 65 | 288 | 0.9 | 6.1 | 0.00 | 0.00 | 0.00 | 38 | 1026.1 |
| 20260509191833 | 65 | 16 | 0.9 | 6.1 | 0.00 | 0.00 | 0.00 | 40 | 1025.9 |
| 20260509190801 | 65 | 309 | 1.7 | 6.1 | 0.00 | 0.00 | 0.00 | 43 | 1026.2 |
| 20260509185800 | 65 | 327 | 0.9 | 7.0 | 0.00 | 0.00 | 0.00 | 40 | 1026.1 |
| 20260509184758 | 65 | 279 | 2.6 | 7.0 | 0.00 | 0.00 | 0.00 | 43 | 1026.1 |
| 20260509183757 | 65 | 19 | 0.9 | 7.0 | 0.00 | 0.00 | 0.00 | 40 | 1026.0 |
| 20260509182725 | 64 | 297 | 1.7 | 7.8 | 0.00 | 0.00 | 0.00 | 43 | 1025.8 |
| 20260509181653 | 64 | 285 | 2.6 | 7.8 | 0.00 | 0.00 | 0.00 | 43 | 1025.7 |
| 20260509180652 | 64 | 303 | 0.9 | 7.8 | 0.00 | 0.00 | 0.00 | 42 | 1025.6 |
| 20260509175651 | 63 | 283 | 2.6 | 6.1 | 0.00 | 0.00 | 0.00 | 47 | 1025.5 |
| 20260509174618 | 63 | 278 | 1.7 | 7.0 | 0.00 | 0.00 | 0.00 | 44 | 1025.4 |
| 20260509173617 | 62 | 14 | 1.7 | 8.7 | 0.00 | 0.00 | 0.00 | 43 | 1025.4 |
| 20260509172615 | 61 | 281 | 1.7 | 8.7 | 0.00 | 0.00 | 0.00 | 46 | 1025.4 |
| 20260509171614 | 61 | 291 | 0.9 | 7.8 | 0.00 | 0.00 | 0.00 | 47 | 1025.4 |
| 20260509170614 | 60 | 77 | 1.7 | 3.5 | 0.00 | 0.00 | 0.00 | 48 | 1025.3 |
| 20260509165613 | 59 | 275 | 1.7 | 2.6 | 0.00 | 0.00 | 0.00 | 50 | 1025.2 |
| 20260509164612 | 59 | 353 | 1.7 | 4.3 | 0.00 | 0.00 | 0.00 | 50 | 1025.3 |
| 20260509163611 | 59 | 296 | 1.7 | 5.2 | 0.00 | 0.00 | 0.00 | 52 | 1025.3 |
| 20260509162610 | 58 | 175 | 0.9 | 5.2 | 0.00 | 0.00 | 0.00 | 51 | 1025.2 |
| 20260509161608 | 57 | 303 | 1.7 | 2.6 | 0.00 | 0.00 | 0.00 | 55 | 1025.1 |
| 20260509160536 | 56 | 32 | 0.9 | 2.6 | 0.00 | 0.00 | 0.00 | 55 | 1025.1 |
| 20260509155504 | 56 | 76 | 0.9 | 2.6 | 0.00 | 0.00 | 0.00 | 54 | 1025.1 |
| 20260509154503 | 56 | 58 | 0.9 | 3.5 | 0.00 | 0.00 | 0.00 | 55 | 1025.2 |
| 20260509153501 | 56 | 27 | 0.9 | 2.6 | 0.00 | 0.00 | 0.00 | 54 | 1025.4 |